Regional Weather Roundup
Issued by NWS

Home | Current Version | Previous Version | Graphics & Text | Print | Product List | Glossary On
Versions: 1 2 3 4 5 6 7 8 9 10 11 12 13 14 15 16 17 18 19 20 21 22 23 24 25 26 27 28 29 30 31 32 33 34 35 36 37 38 39 40 41 42 43 44 45 46 47 48 49 50
000
ASUS45 KBOI 171910
RWRID
WEATHER ROUNDUP FOR IDAHO
NATIONAL WEATHER SERVICE BOISE ID
100 PM MDT WED SEP 17 2014

NOTE: "FAIR" INDICATES FEW OR NO CLOUDS BELOW 12000 FEET
WITH NO SIGNIFICANT WEATHER AND/OR OBSTRUCTIONS TO VISIBILITY

IDZ012-014-172000-
SOUTHWEST IDAHO


CITY           SKY/WX    TMP DP  RH WIND       PRES   REMARKS
BOISE          CLOUDY    85  40  20 CALM      29.85F
CALDWELL       CLOUDY    79  48  34 S5        29.86F
MOUNTAIN HOME  CLOUDY    83  44  25 VRB6      29.86F
$$

IDZ016-017-172000-
SOUTHCENTRAL IDAHO


CITY           SKY/WX    TMP DP  RH WIND       PRES   REMARKS
BURLEY         PTSUNNY   83  47  28 CALM      29.92F
JEROME         MOSUNNY   83  46  27 N3        29.93F
TWIN FALLS     MOSUNNY   82  49  31 NE7       29.92F
$$

IDZ019>023-172000-
SOUTHEAST IDAHO


CITY           SKY/WX    TMP DP  RH WIND       PRES   REMARKS
IDAHO FALLS    MOSUNNY   81  46  29 VRB5      30.00F
POCATELLO      SUNNY     89  43  20 S6        29.96F
REXBURG        MOSUNNY   80  47  31 VRB6      30.01F
$$

IDZ006-010-011-018-031-032-172000-
CENTRAL IDAHO MOUNTAINS


CITY           SKY/WX    TMP DP  RH WIND       PRES   REMARKS
MCCALL         CLOUDY    68  47  46 SW5       29.98S
HAILEY         PTSUNNY   79  46  31 SE6       30.03F
STANLEY          N/A     64  38  38 CALM      30.12F
SALMON         CLOUDY    66  45  45 E5        29.96F
CHALLIS        PTSUNNY   65  43  44 SE3       30.03F
$$

IDZ002-004-006-007-026-172000-
NORTHERN IDAHO


CITY           SKY/WX    TMP DP  RH WIND       PRES   REMARKS
LEWISTON       PTSUNNY   78  42  27 N5        29.75F
LOWELL           N/A     71  54  54 CALM      29.80F
COEUR D`ALENE  MOSUNNY   79  45  29 E5        29.81F
MULLAN PASS    PTSUNNY   67  39  35 VRB6      30.01R
$$


USA.gov is the U.S. government's official web portal to all federal, state and local government web resources and services.